sat.trackr.live / text

‹ back to catalog

STARLINK-34856

NORAD 65687 · 2025-212M

PAYLOAD ACTIVE UNKNOWN

§ Identity

Operator
Country
US
Launch date
2025-09-21
Launch site
AFETR
Launch vehicle
Mass (kg)
RCS (m²)

Purposes: comms

External: N2YO · Heavens-Above · Gunter

§ Orbital elements

Epoch: 2026-05-25T04:00:03.998880Z

Period
94.01 min
Inclination
53.1599°
Eccentricity
0.0001107
Mean motion
15.31712360 rev/d
Perigee alt
469.9 km
Apogee alt
471.5 km
Semi-major
6,848.8 km
B*
-3.5216e-4
RAAN
350.2274°
Arg perigee
75.2987°
Mean anomaly
355.3608°
Rev number
581

§ Raw data

STARLINK-348561 65687U 25212M   26145.16671295 -.00011281  00000+0 -35216-3 0  99932 65687  53.1599 350.2274 0001107  75.2987 355.3608 15.31712360  5819

JSON: /api/v1/satellites/65687 · /tle

For live sub-satellite position, see the globe view (requires WebGL).

§ Visibility from observer

Set your observer location to see the next 7 days of passes ≥ 10°. The values pass through the URL so the page stays shareable.

No JS? Fill the form by hand. The geolocation button needs JavaScript.